Year,Month,Day,Hour,Minute,Value (Times are PST for temperature in C)
2012,06,09,00,00,9.90
2012,06,09,00,01,9.90
2012,06,09,00,02,9.90
2012,06,09,00,03,9.90
2012,06,09,00,04,9.90
2012,06,09,00,05,9.90
2012,06,09,00,06,9.90
2012,06,09,00,07,9.90
2012,06,09,00,08,9.90
2012,06,09,00,09,9.90
2012,06,09,00,10,9.90
2012,06,09,00,11,9.90
2012,06,09,00,12,9.90
2012,06,09,00,13,9.90
2012,06,09,00,14,9.90
2012,06,09,00,15,9.90
2012,06,09,00,16,9.90
2012,06,09,00,17,9.90
2012,06,09,00,18,9.90
2012,06,09,00,19,9.90
2012,06,09,00,20,9.90
2012,06,09,00,21,9.90
2012,06,09,00,22,9.90
2012,06,09,00,23,9.90
2012,06,09,00,24,9.90
2012,06,09,00,25,9.90
2012,06,09,00,26,9.90
2012,06,09,00,27,9.90
2012,06,09,00,28,9.90
2012,06,09,00,29,9.80
2012,06,09,00,30,9.80
2012,06,09,00,31,9.80
2012,06,09,00,32,9.80
2012,06,09,00,33,9.80
2012,06,09,00,34,9.70
2012,06,09,00,35,9.70
2012,06,09,00,36,9.70
2012,06,09,00,37,9.70
2012,06,09,00,38,9.70
2012,06,09,00,39,9.70
2012,06,09,00,40,9.70
2012,06,09,00,41,9.70
2012,06,09,00,42,9.60
2012,06,09,00,43,9.60
2012,06,09,00,44,9.60
2012,06,09,00,45,9.50
2012,06,09,00,46,9.50
2012,06,09,00,47,9.40
2012,06,09,00,48,9.40
2012,06,09,00,49,9.40
2012,06,09,00,50,9.30
2012,06,09,00,51,9.30
2012,06,09,00,52,9.20
2012,06,09,00,53,9.20
2012,06,09,00,54,9.20
2012,06,09,00,55,9.20
2012,06,09,00,56,9.20
2012,06,09,00,57,9.20
2012,06,09,00,58,9.20
2012,06,09,00,59,9.10
2012,06,09,01,00,9.10
2012,06,09,01,01,9.00
2012,06,09,01,02,9.00
2012,06,09,01,03,9.00
2012,06,09,01,04,8.90
2012,06,09,01,05,8.90
2012,06,09,01,06,8.90
2012,06,09,01,07,8.80
2012,06,09,01,08,8.80
2012,06,09,01,09,8.80
2012,06,09,01,10,8.80
2012,06,09,01,11,8.80
2012,06,09,01,12,8.80
2012,06,09,01,13,8.80
2012,06,09,01,14,8.80
2012,06,09,01,15,8.90
2012,06,09,01,16,8.90
2012,06,09,01,17,9.00
2012,06,09,01,18,9.00
2012,06,09,01,19,9.10
2012,06,09,01,20,9.20
2012,06,09,01,21,9.20
2012,06,09,01,22,9.20
2012,06,09,01,23,9.30
2012,06,09,01,24,9.30
2012,06,09,01,25,9.30
2012,06,09,01,26,9.40
2012,06,09,01,27,9.40
2012,06,09,01,28,9.40
2012,06,09,01,29,9.40
2012,06,09,01,30,9.40
2012,06,09,01,31,9.40
2012,06,09,01,32,9.40
2012,06,09,01,33,9.40
2012,06,09,01,34,9.40
2012,06,09,01,35,9.40
2012,06,09,01,36,9.40
2012,06,09,01,37,9.40
2012,06,09,01,38,9.40
2012,06,09,01,39,9.40
2012,06,09,01,40,9.40
2012,06,09,01,41,9.40
2012,06,09,01,42,9.30
2012,06,09,01,43,9.30
2012,06,09,01,44,9.20
2012,06,09,01,45,9.20
2012,06,09,01,46,9.20
2012,06,09,01,47,9.20
2012,06,09,01,48,9.20
2012,06,09,01,49,9.20
2012,06,09,01,50,9.10
2012,06,09,01,51,9.10
2012,06,09,01,52,9.10
2012,06,09,01,53,9.00
2012,06,09,01,54,9.00
2012,06,09,01,55,9.00
2012,06,09,01,56,9.00
2012,06,09,01,57,9.00
2012,06,09,01,58,9.00
2012,06,09,01,59,8.90
2012,06,09,02,00,8.90
2012,06,09,02,01,8.90
2012,06,09,02,02,8.90
2012,06,09,02,03,8.90
2012,06,09,02,04,8.80
2012,06,09,02,05,8.80
2012,06,09,02,06,8.80
2012,06,09,02,07,8.70
2012,06,09,02,08,8.70
2012,06,09,02,09,8.70
2012,06,09,02,10,8.70
2012,06,09,02,11,8.70
2012,06,09,02,12,8.60
2012,06,09,02,13,8.60
2012,06,09,02,14,8.60
2012,06,09,02,15,8.60
2012,06,09,02,16,8.60
2012,06,09,02,17,8.70
2012,06,09,02,18,8.70
2012,06,09,02,19,8.70
2012,06,09,02,20,8.70
2012,06,09,02,21,8.80
2012,06,09,02,22,8.90
2012,06,09,02,23,9.00
2012,06,09,02,24,9.00
2012,06,09,02,25,9.10
2012,06,09,02,26,9.20
2012,06,09,02,27,9.30
2012,06,09,02,28,9.30
2012,06,09,02,29,9.40
2012,06,09,02,30,9.40
2012,06,09,02,31,9.40
2012,06,09,02,32,9.40
2012,06,09,02,33,9.50
2012,06,09,02,34,9.50
2012,06,09,02,35,9.50
2012,06,09,02,36,9.60
2012,06,09,02,37,9.60
2012,06,09,02,38,9.70
2012,06,09,02,39,9.70
2012,06,09,02,40,9.70
2012,06,09,02,41,9.80
2012,06,09,02,42,9.80
2012,06,09,02,43,9.90
2012,06,09,02,44,9.90
2012,06,09,02,45,9.90
2012,06,09,02,46,9.90
2012,06,09,02,47,9.90
2012,06,09,02,48,9.90
2012,06,09,02,49,9.90
2012,06,09,02,50,9.90
2012,06,09,02,51,9.90
2012,06,09,02,52,9.90
2012,06,09,02,53,9.90
2012,06,09,02,54,9.90
2012,06,09,02,55,9.90
2012,06,09,02,56,9.90
2012,06,09,02,57,9.90
2012,06,09,02,58,9.90
2012,06,09,02,59,9.90
2012,06,09,03,00,9.90
2012,06,09,03,01,10.00
2012,06,09,03,02,10.10
2012,06,09,03,03,10.10
2012,06,09,03,04,10.10
2012,06,09,03,05,10.10
2012,06,09,03,06,10.10
2012,06,09,03,07,10.10
2012,06,09,03,08,10.10
2012,06,09,03,09,10.10
2012,06,09,03,10,10.10
2012,06,09,03,11,10.10
2012,06,09,03,12,10.10
2012,06,09,03,13,10.10
2012,06,09,03,14,10.10
2012,06,09,03,15,10.10
2012,06,09,03,16,10.10
2012,06,09,03,17,10.00
2012,06,09,03,18,9.90
2012,06,09,03,19,9.90
2012,06,09,03,20,9.90
2012,06,09,03,21,9.90
2012,06,09,03,22,9.90
2012,06,09,03,23,9.90
2012,06,09,03,24,9.90
2012,06,09,03,25,9.90
2012,06,09,03,26,9.90
2012,06,09,03,27,9.90
2012,06,09,03,28,9.90
2012,06,09,03,29,9.90
2012,06,09,03,30,9.90
2012,06,09,03,31,9.90
2012,06,09,03,32,9.90
2012,06,09,03,33,9.90
2012,06,09,03,34,9.90
2012,06,09,03,35,9.90
2012,06,09,03,36,9.90
2012,06,09,03,37,9.90
2012,06,09,03,38,9.90
2012,06,09,03,39,9.90
2012,06,09,03,40,9.90
2012,06,09,03,41,9.90
2012,06,09,03,42,9.90
2012,06,09,03,43,9.90
2012,06,09,03,44,9.90
2012,06,09,03,45,9.90
2012,06,09,03,46,9.90
2012,06,09,03,47,9.90
2012,06,09,03,48,9.90
2012,06,09,03,49,9.90
2012,06,09,03,50,10.00
2012,06,09,03,51,10.10
2012,06,09,03,52,10.10
2012,06,09,03,53,10.10
2012,06,09,03,54,10.10
2012,06,09,03,55,10.10
2012,06,09,03,56,10.10
2012,06,09,03,57,10.10
2012,06,09,03,58,10.10
2012,06,09,03,59,10.10
2012,06,09,04,00,10.10
2012,06,09,04,01,10.10
2012,06,09,04,02,10.10
2012,06,09,04,03,10.10
2012,06,09,04,04,10.00
2012,06,09,04,05,9.90
2012,06,09,04,06,9.90
2012,06,09,04,07,9.90
2012,06,09,04,08,9.90
2012,06,09,04,09,9.90
2012,06,09,04,10,9.90
2012,06,09,04,11,9.90
2012,06,09,04,12,9.80
2012,06,09,04,13,9.80
2012,06,09,04,14,9.80
2012,06,09,04,15,9.80
2012,06,09,04,16,9.80
2012,06,09,04,17,9.80
2012,06,09,04,18,9.70
2012,06,09,04,19,9.70
2012,06,09,04,20,9.70
2012,06,09,04,21,9.70
2012,06,09,04,22,9.70
2012,06,09,04,23,9.70
2012,06,09,04,24,9.70
2012,06,09,04,25,9.70
2012,06,09,04,26,9.60
2012,06,09,04,27,9.60
2012,06,09,04,28,9.50
2012,06,09,04,29,9.50
2012,06,09,04,30,9.40
2012,06,09,04,31,9.40
2012,06,09,04,32,9.40
2012,06,09,04,33,9.30
2012,06,09,04,34,9.30
2012,06,09,04,35,9.20
2012,06,09,04,36,9.20
2012,06,09,04,37,9.20
2012,06,09,04,38,9.10
2012,06,09,04,39,9.10
2012,06,09,04,40,9.00
2012,06,09,04,41,9.00
2012,06,09,04,42,9.00
2012,06,09,04,43,8.90
2012,06,09,04,44,8.90
2012,06,09,04,45,8.90
2012,06,09,04,46,8.90
2012,06,09,04,47,8.90
2012,06,09,04,48,8.80
2012,06,09,04,49,8.80
2012,06,09,04,50,8.80
2012,06,09,04,51,8.70
2012,06,09,04,52,8.70
2012,06,09,04,53,8.70
2012,06,09,04,54,8.70
2012,06,09,04,55,8.70
2012,06,09,04,56,8.70
2012,06,09,04,57,8.70
2012,06,09,04,58,8.70
2012,06,09,04,59,8.70
2012,06,09,05,00,8.70
2012,06,09,05,01,8.70
2012,06,09,05,02,8.70
2012,06,09,05,03,8.70
2012,06,09,05,04,8.80
2012,06,09,05,05,8.90
2012,06,09,05,06,8.90
2012,06,09,05,07,9.00
2012,06,09,05,08,9.00
2012,06,09,05,09,9.00
2012,06,09,05,10,9.10
2012,06,09,05,11,9.10
2012,06,09,05,12,9.10
2012,06,09,05,13,9.20
2012,06,09,05,14,9.20
2012,06,09,05,15,9.20
2012,06,09,05,16,9.20
2012,06,09,05,17,9.20
2012,06,09,05,18,9.20
2012,06,09,05,19,9.20
2012,06,09,05,20,9.30
2012,06,09,05,21,9.30
2012,06,09,05,22,9.30
2012,06,09,05,23,9.30
2012,06,09,05,24,9.30
2012,06,09,05,25,9.30
2012,06,09,05,26,9.30
2012,06,09,05,27,9.30
2012,06,09,05,28,9.30
2012,06,09,05,29,9.30
2012,06,09,05,30,9.30
2012,06,09,05,31,9.30
2012,06,09,05,32,9.30
2012,06,09,05,33,9.30
2012,06,09,05,34,9.30
2012,06,09,05,35,9.30
2012,06,09,05,36,9.30
2012,06,09,05,37,9.30
2012,06,09,05,38,9.30
2012,06,09,05,39,9.30
2012,06,09,05,40,9.30
2012,06,09,05,41,9.30
2012,06,09,05,42,9.30
2012,06,09,05,43,9.30
2012,06,09,05,44,9.30
2012,06,09,05,45,9.30
2012,06,09,05,46,9.40
2012,06,09,05,47,9.40
2012,06,09,05,48,9.40
2012,06,09,05,49,9.40
2012,06,09,05,50,9.40
2012,06,09,05,51,9.40
2012,06,09,05,52,9.40
2012,06,09,05,53,9.30
2012,06,09,05,54,9.30
2012,06,09,05,55,9.30
2012,06,09,05,56,9.30
2012,06,09,05,57,9.30
2012,06,09,05,58,9.30
2012,06,09,05,59,9.30
2012,06,09,06,00,9.30
2012,06,09,06,01,9.30
2012,06,09,06,02,9.20
2012,06,09,06,03,9.20
2012,06,09,06,04,9.20
2012,06,09,06,05,9.20
2012,06,09,06,06,9.20
2012,06,09,06,07,9.20
2012,06,09,06,08,9.20
2012,06,09,06,09,9.30
2012,06,09,06,10,9.30
2012,06,09,06,11,9.30
2012,06,09,06,12,9.30
2012,06,09,06,13,9.40
2012,06,09,06,14,9.40
2012,06,09,06,15,9.40
2012,06,09,06,16,9.40
2012,06,09,06,17,9.40
2012,06,09,06,18,9.50
2012,06,09,06,19,9.50
2012,06,09,06,20,9.60
2012,06,09,06,21,9.60
2012,06,09,06,22,9.70
2012,06,09,06,23,9.70
2012,06,09,06,24,9.70
2012,06,09,06,25,9.70
2012,06,09,06,26,9.80
2012,06,09,06,27,9.80
2012,06,09,06,28,9.80
2012,06,09,06,29,9.90
2012,06,09,06,30,9.90
2012,06,09,06,31,9.90
2012,06,09,06,32,9.90
2012,06,09,06,33,9.90
2012,06,09,06,34,9.90
2012,06,09,06,35,9.90
2012,06,09,06,36,9.90
2012,06,09,06,37,10.00
2012,06,09,06,38,10.10
2012,06,09,06,39,10.10
2012,06,09,06,40,10.10
2012,06,09,06,41,10.10
2012,06,09,06,42,10.10
2012,06,09,06,43,10.10
2012,06,09,06,44,10.10
2012,06,09,06,45,10.10
2012,06,09,06,46,10.10
2012,06,09,06,47,10.20
2012,06,09,06,48,10.20
2012,06,09,06,49,10.20
2012,06,09,06,50,10.20
2012,06,09,06,51,10.20
2012,06,09,06,52,10.20
2012,06,09,06,53,10.20
2012,06,09,06,54,10.20
2012,06,09,06,55,10.20
2012,06,09,06,56,10.30
2012,06,09,06,57,10.30
2012,06,09,06,58,10.30
2012,06,09,06,59,10.30
2012,06,09,07,00,10.30
2012,06,09,07,01,10.40
2012,06,09,07,02,10.40
2012,06,09,07,03,10.40
2012,06,09,07,04,10.40
2012,06,09,07,05,10.40
2012,06,09,07,06,10.40
2012,06,09,07,07,10.40
2012,06,09,07,08,10.40
2012,06,09,07,09,10.40
2012,06,09,07,10,10.40
2012,06,09,07,11,10.40
2012,06,09,07,12,10.40
2012,06,09,07,13,10.40
2012,06,09,07,14,10.40
2012,06,09,07,15,10.40
2012,06,09,07,16,10.40
2012,06,09,07,17,10.50
2012,06,09,07,18,10.60
2012,06,09,07,19,10.60
2012,06,09,07,20,10.60
2012,06,09,07,21,10.60
2012,06,09,07,22,10.60
2012,06,09,07,23,10.60
2012,06,09,07,24,10.60
2012,06,09,07,25,10.60
2012,06,09,07,26,10.70
2012,06,09,07,27,10.70
2012,06,09,07,28,10.70
2012,06,09,07,29,10.70
2012,06,09,07,30,10.70
2012,06,09,07,31,10.70
2012,06,09,07,32,10.70
2012,06,09,07,33,10.70
2012,06,09,07,34,10.70
2012,06,09,07,35,10.70
2012,06,09,07,36,10.70
2012,06,09,07,37,10.70
2012,06,09,07,38,10.80
2012,06,09,07,39,10.70
2012,06,09,07,40,10.70
2012,06,09,07,41,10.70
2012,06,09,07,42,10.70
2012,06,09,07,43,10.70
2012,06,09,07,44,10.70
2012,06,09,07,45,10.70
2012,06,09,07,46,10.80
2012,06,09,07,47,10.80
2012,06,09,07,48,10.70
2012,06,09,07,49,10.70
2012,06,09,07,50,10.60
2012,06,09,07,51,10.70
2012,06,09,07,52,10.70
2012,06,09,07,53,10.70
2012,06,09,07,54,10.80
2012,06,09,07,55,10.80
2012,06,09,07,56,10.80
2012,06,09,07,57,10.80
2012,06,09,07,58,10.80
2012,06,09,07,59,10.80
2012,06,09,08,00,10.80
2012,06,09,08,01,10.80
2012,06,09,08,02,10.80
2012,06,09,08,03,10.80
2012,06,09,08,04,10.80
2012,06,09,08,05,10.80
2012,06,09,08,06,10.90
2012,06,09,08,07,10.90
2012,06,09,08,08,10.90
2012,06,09,08,09,10.90
2012,06,09,08,10,10.90
2012,06,09,08,11,11.00
2012,06,09,08,12,11.10
2012,06,09,08,13,11.10
2012,06,09,08,14,11.10
2012,06,09,08,15,11.20
2012,06,09,08,16,11.20
2012,06,09,08,17,11.20
2012,06,09,08,18,11.20
2012,06,09,08,19,11.30
2012,06,09,08,20,11.30
2012,06,09,08,21,11.30
2012,06,09,08,22,11.30
2012,06,09,08,23,11.30
2012,06,09,08,24,11.30
2012,06,09,08,25,11.30
2012,06,09,08,26,11.30
2012,06,09,08,27,11.20
2012,06,09,08,28,11.20
2012,06,09,08,29,11.20
2012,06,09,08,30,11.30
2012,06,09,08,31,11.30
2012,06,09,08,32,11.30
2012,06,09,08,33,11.40
2012,06,09,08,34,11.40
2012,06,09,08,35,11.40
2012,06,09,08,36,11.40
2012,06,09,08,37,11.40
2012,06,09,08,38,11.50
2012,06,09,08,39,11.60
2012,06,09,08,40,11.60
2012,06,09,08,41,11.70
2012,06,09,08,42,11.80
2012,06,09,08,43,11.80
2012,06,09,08,44,11.80
2012,06,09,08,45,11.80
2012,06,09,08,46,11.70
2012,06,09,08,47,11.70
2012,06,09,08,48,11.60
2012,06,09,08,49,11.60
2012,06,09,08,50,11.60
2012,06,09,08,51,11.60
2012,06,09,08,52,11.70
2012,06,09,08,53,11.80
2012,06,09,08,54,11.80
2012,06,09,08,55,11.80
2012,06,09,08,56,11.80
2012,06,09,08,57,11.80
2012,06,09,08,58,11.80
2012,06,09,08,59,11.80
2012,06,09,09,00,11.90
2012,06,09,09,01,11.90
2012,06,09,09,02,11.90
2012,06,09,09,03,11.90
2012,06,09,09,04,12.00
2012,06,09,09,05,12.00
2012,06,09,09,06,12.00
2012,06,09,09,07,12.00
2012,06,09,09,08,12.00
2012,06,09,09,09,12.00
2012,06,09,09,10,12.00
2012,06,09,09,11,12.00
2012,06,09,09,12,12.10
2012,06,09,09,13,12.20
2012,06,09,09,14,12.30
2012,06,09,09,15,12.30
2012,06,09,09,16,12.30
2012,06,09,09,17,12.40
2012,06,09,09,18,12.50
2012,06,09,09,19,12.50
2012,06,09,09,20,12.60
2012,06,09,09,21,12.60
2012,06,09,09,22,12.60
2012,06,09,09,23,12.70
2012,06,09,09,24,12.70
2012,06,09,09,25,12.70
2012,06,09,09,26,12.60
2012,06,09,09,27,12.50
2012,06,09,09,28,12.50
2012,06,09,09,29,12.50
2012,06,09,09,30,12.50
2012,06,09,09,31,12.50
2012,06,09,09,32,12.60
2012,06,09,09,33,12.50
2012,06,09,09,34,12.50
2012,06,09,09,35,12.50
2012,06,09,09,36,12.50
2012,06,09,09,37,12.50
2012,06,09,09,38,12.50
2012,06,09,09,39,12.40
2012,06,09,09,40,12.40
2012,06,09,09,41,12.50
2012,06,09,09,42,12.50
2012,06,09,09,43,12.50
2012,06,09,09,44,12.60
2012,06,09,09,45,12.60
2012,06,09,09,46,12.70
2012,06,09,09,47,12.70
2012,06,09,09,48,12.70
2012,06,09,09,49,12.80
2012,06,09,09,50,12.80
2012,06,09,09,51,12.80
2012,06,09,09,52,12.90
2012,06,09,09,53,13.00
2012,06,09,09,54,13.00
2012,06,09,09,55,12.90
2012,06,09,09,56,12.80
2012,06,09,09,57,12.80
2012,06,09,09,58,12.90
2012,06,09,09,59,13.00
2012,06,09,10,00,13.00
2012,06,09,10,01,13.00
2012,06,09,10,02,13.10
2012,06,09,10,03,13.00
2012,06,09,10,04,13.00
2012,06,09,10,05,12.90
2012,06,09,10,06,12.90
2012,06,09,10,07,12.80
2012,06,09,10,08,12.80
2012,06,09,10,09,12.80
2012,06,09,10,10,12.80
2012,06,09,10,11,12.80
2012,06,09,10,12,12.90
2012,06,09,10,13,13.00
2012,06,09,10,14,13.00
2012,06,09,10,15,13.00
2012,06,09,10,16,13.10
2012,06,09,10,17,13.20
2012,06,09,10,18,13.20
2012,06,09,10,19,13.30
2012,06,09,10,20,13.50
2012,06,09,10,21,13.60
2012,06,09,10,22,13.60
2012,06,09,10,23,13.50
2012,06,09,10,24,13.40
2012,06,09,10,25,13.40
2012,06,09,10,26,13.40
2012,06,09,10,27,13.40
2012,06,09,10,28,13.50
2012,06,09,10,29,13.50
2012,06,09,10,30,13.40
2012,06,09,10,31,13.40
2012,06,09,10,32,13.40
2012,06,09,10,33,13.40
2012,06,09,10,34,13.40
2012,06,09,10,35,13.50
2012,06,09,10,36,13.60
2012,06,09,10,37,13.60
2012,06,09,10,38,13.60
2012,06,09,10,39,13.70
2012,06,09,10,40,13.70
2012,06,09,10,41,13.70
2012,06,09,10,42,13.90
2012,06,09,10,43,14.00
2012,06,09,10,44,13.90
2012,06,09,10,45,13.90
2012,06,09,10,46,13.90
2012,06,09,10,47,13.80
2012,06,09,10,48,13.70
2012,06,09,10,49,13.70
2012,06,09,10,50,13.70
2012,06,09,10,51,13.70
2012,06,09,10,52,13.70
2012,06,09,10,53,13.70
2012,06,09,10,54,13.60
2012,06,09,10,55,13.60
2012,06,09,10,56,13.50
2012,06,09,10,57,13.40
2012,06,09,10,58,13.30
2012,06,09,10,59,13.30
2012,06,09,11,00,13.30
2012,06,09,11,01,13.30
2012,06,09,11,02,13.30
2012,06,09,11,03,13.20
2012,06,09,11,04,13.20
2012,06,09,11,05,13.10
2012,06,09,11,06,13.10
2012,06,09,11,07,13.00
2012,06,09,11,08,12.90
2012,06,09,11,09,12.90
2012,06,09,11,10,13.00
2012,06,09,11,11,13.00
2012,06,09,11,12,13.10
2012,06,09,11,13,13.10
2012,06,09,11,14,13.20
2012,06,09,11,15,13.20
2012,06,09,11,16,13.20
2012,06,09,11,17,13.20
2012,06,09,11,18,13.30
2012,06,09,11,19,13.40
2012,06,09,11,20,13.40
2012,06,09,11,21,13.50
2012,06,09,11,22,13.60
2012,06,09,11,23,13.70
2012,06,09,11,24,13.80
2012,06,09,11,25,13.80
2012,06,09,11,26,13.90
2012,06,09,11,27,13.80
2012,06,09,11,28,13.80
2012,06,09,11,29,13.70
2012,06,09,11,30,13.70
2012,06,09,11,31,13.70
2012,06,09,11,32,13.60
2012,06,09,11,33,13.60
2012,06,09,11,34,13.40
2012,06,09,11,35,13.40
2012,06,09,11,36,13.40
2012,06,09,11,37,13.40
2012,06,09,11,38,13.50
2012,06,09,11,39,13.50
2012,06,09,11,40,13.60
2012,06,09,11,41,13.60
2012,06,09,11,42,13.60
2012,06,09,11,43,13.60
2012,06,09,11,44,13.60
2012,06,09,11,45,13.70
2012,06,09,11,46,13.70
2012,06,09,11,47,13.70
2012,06,09,11,48,13.70
2012,06,09,11,49,13.70
2012,06,09,11,50,13.70
2012,06,09,11,51,13.70
2012,06,09,11,52,13.80
2012,06,09,11,53,13.90
2012,06,09,11,54,13.90
2012,06,09,11,55,13.90
2012,06,09,11,56,13.90
2012,06,09,11,57,13.90
2012,06,09,11,58,13.90
2012,06,09,11,59,13.90
2012,06,09,12,00,13.90
2012,06,09,12,01,13.90
2012,06,09,12,02,13.80
2012,06,09,12,03,13.80
2012,06,09,12,04,13.90
2012,06,09,12,05,14.00
2012,06,09,12,06,14.10
2012,06,09,12,07,14.20
2012,06,09,12,08,14.20
2012,06,09,12,09,14.20
2012,06,09,12,10,14.10
2012,06,09,12,11,14.10
2012,06,09,12,12,14.10
2012,06,09,12,13,14.20
2012,06,09,12,14,14.20
2012,06,09,12,15,14.20
2012,06,09,12,16,14.20
2012,06,09,12,17,14.20
2012,06,09,12,18,14.20
2012,06,09,12,19,14.20
2012,06,09,12,20,14.20
2012,06,09,12,21,14.30
2012,06,09,12,22,14.50
2012,06,09,12,23,14.50
2012,06,09,12,24,14.60
2012,06,09,12,25,14.60
2012,06,09,12,26,14.70
2012,06,09,12,27,14.70
2012,06,09,12,28,14.70
2012,06,09,12,29,14.70
2012,06,09,12,30,14.70
2012,06,09,12,31,14.70
2012,06,09,12,32,14.70
2012,06,09,12,33,14.70
2012,06,09,12,34,14.70
2012,06,09,12,35,14.70
2012,06,09,12,36,14.60
2012,06,09,12,37,14.60
2012,06,09,12,38,14.70
2012,06,09,12,39,14.80
2012,06,09,12,40,14.80
2012,06,09,12,41,14.90
2012,06,09,12,42,15.00
2012,06,09,12,43,15.10
2012,06,09,12,44,15.10
2012,06,09,12,45,15.10
2012,06,09,12,46,15.10
2012,06,09,12,47,15.10
2012,06,09,12,48,15.10
2012,06,09,12,49,15.10
2012,06,09,12,50,15.00
2012,06,09,12,51,14.90
2012,06,09,12,52,14.80
2012,06,09,12,53,14.80
2012,06,09,12,54,14.80
2012,06,09,12,55,14.80
2012,06,09,12,56,14.80
2012,06,09,12,57,14.90
2012,06,09,12,58,14.90
2012,06,09,12,59,14.90
2012,06,09,13,00,14.90
2012,06,09,13,01,15.00
2012,06,09,13,02,14.90
2012,06,09,13,03,15.00
2012,06,09,13,04,15.00
2012,06,09,13,05,15.10
2012,06,09,13,06,15.10
2012,06,09,13,07,15.10
2012,06,09,13,08,15.10
2012,06,09,13,09,15.10
2012,06,09,13,10,15.30
2012,06,09,13,11,15.40
2012,06,09,13,12,15.50
2012,06,09,13,13,15.60
2012,06,09,13,14,15.70
2012,06,09,13,15,15.70
2012,06,09,13,16,15.80
2012,06,09,13,17,15.80
2012,06,09,13,18,15.80
2012,06,09,13,19,15.70
2012,06,09,13,20,15.60
2012,06,09,13,21,15.50
2012,06,09,13,22,15.40
2012,06,09,13,23,15.20
2012,06,09,13,24,15.10
2012,06,09,13,25,15.10
2012,06,09,13,26,15.20
2012,06,09,13,27,15.30
2012,06,09,13,28,15.30
2012,06,09,13,29,15.40
2012,06,09,13,30,15.50
2012,06,09,13,31,15.50
2012,06,09,13,32,15.60
2012,06,09,13,33,15.60
2012,06,09,13,34,15.60
2012,06,09,13,35,15.50
2012,06,09,13,36,15.50
2012,06,09,13,37,15.60
2012,06,09,13,38,15.70
2012,06,09,13,39,15.70
2012,06,09,13,40,15.70
2012,06,09,13,41,15.80
2012,06,09,13,42,15.90
2012,06,09,13,43,16.00
2012,06,09,13,44,16.20
2012,06,09,13,45,16.30
2012,06,09,13,46,16.40
2012,06,09,13,47,16.40
2012,06,09,13,48,16.40
2012,06,09,13,49,16.40
2012,06,09,13,50,16.40
2012,06,09,13,51,16.30
2012,06,09,13,52,16.30
2012,06,09,13,53,16.10
2012,06,09,13,54,16.00
2012,06,09,13,55,15.90
2012,06,09,13,56,16.00
2012,06,09,13,57,16.10
2012,06,09,13,58,16.10
2012,06,09,13,59,16.20
2012,06,09,14,00,16.20
2012,06,09,14,01,16.20
2012,06,09,14,02,16.20
2012,06,09,14,03,16.30
2012,06,09,14,04,16.30
2012,06,09,14,05,16.30
2012,06,09,14,06,16.20
2012,06,09,14,07,16.10
2012,06,09,14,08,15.90
2012,06,09,14,09,15.80
2012,06,09,14,10,15.90
2012,06,09,14,11,15.90
2012,06,09,14,12,16.00
2012,06,09,14,13,16.10
2012,06,09,14,14,16.10
2012,06,09,14,15,16.10
2012,06,09,14,16,16.10
2012,06,09,14,17,16.10
2012,06,09,14,18,16.10
2012,06,09,14,19,16.30
2012,06,09,14,20,16.40
2012,06,09,14,21,16.50
2012,06,09,14,22,16.60
2012,06,09,14,23,16.50
2012,06,09,14,24,16.40
2012,06,09,14,25,16.40
2012,06,09,14,26,16.40
2012,06,09,14,27,16.40
2012,06,09,14,28,16.40
2012,06,09,14,29,16.40
2012,06,09,14,30,16.30
2012,06,09,14,31,16.20
2012,06,09,14,32,16.20
2012,06,09,14,33,16.40
2012,06,09,14,34,16.40
2012,06,09,14,35,16.40
2012,06,09,14,36,16.40
2012,06,09,14,37,16.50
2012,06,09,14,38,16.70
2012,06,09,14,39,16.80
2012,06,09,14,40,17.00
2012,06,09,14,41,17.10
2012,06,09,14,42,17.30
2012,06,09,14,43,17.40
2012,06,09,14,44,17.40
2012,06,09,14,45,17.30
2012,06,09,14,46,17.30
2012,06,09,14,47,17.30
2012,06,09,14,48,17.30
2012,06,09,14,49,17.10
2012,06,09,14,50,16.90
2012,06,09,14,51,16.80
2012,06,09,14,52,16.70
2012,06,09,14,53,16.60
2012,06,09,14,54,16.60
2012,06,09,14,55,16.50
2012,06,09,14,56,16.40
2012,06,09,14,57,16.40
2012,06,09,14,58,16.40
2012,06,09,14,59,16.40
2012,06,09,15,00,16.50
2012,06,09,15,01,16.70
2012,06,09,15,02,16.70
2012,06,09,15,03,16.70
2012,06,09,15,04,16.70
2012,06,09,15,05,16.60
2012,06,09,15,06,16.50
2012,06,09,15,07,16.40
2012,06,09,15,08,16.40
2012,06,09,15,09,16.40
2012,06,09,15,10,16.40
2012,06,09,15,11,16.40
2012,06,09,15,12,16.30
2012,06,09,15,13,16.40
2012,06,09,15,14,16.40
2012,06,09,15,15,16.40
2012,06,09,15,16,16.40
2012,06,09,15,17,16.40
2012,06,09,15,18,16.40
2012,06,09,15,19,16.50
2012,06,09,15,20,16.70
2012,06,09,15,21,16.80
2012,06,09,15,22,16.90
2012,06,09,15,23,16.90
2012,06,09,15,24,16.90
2012,06,09,15,25,16.90
2012,06,09,15,26,16.90
2012,06,09,15,27,16.90
2012,06,09,15,28,16.90
2012,06,09,15,29,16.90
2012,06,09,15,30,16.80
2012,06,09,15,31,16.70
2012,06,09,15,32,16.70
2012,06,09,15,33,16.70
2012,06,09,15,34,16.70
2012,06,09,15,35,16.70
2012,06,09,15,36,16.80
2012,06,09,15,37,16.90
2012,06,09,15,38,17.10
2012,06,09,15,39,17.30
2012,06,09,15,40,17.50
2012,06,09,15,41,17.50
2012,06,09,15,42,17.60
2012,06,09,15,43,17.50
2012,06,09,15,44,17.50
2012,06,09,15,45,17.50
2012,06,09,15,46,17.60
2012,06,09,15,47,17.60
2012,06,09,15,48,17.60
2012,06,09,15,49,17.70
2012,06,09,15,50,17.70
2012,06,09,15,51,17.70
2012,06,09,15,52,17.70
2012,06,09,15,53,17.80
2012,06,09,15,54,17.70
2012,06,09,15,55,17.80
2012,06,09,15,56,17.80
2012,06,09,15,57,17.60
2012,06,09,15,58,17.40
2012,06,09,15,59,17.30
2012,06,09,16,00,17.20
2012,06,09,16,01,17.20
2012,06,09,16,02,17.20
2012,06,09,16,03,17.20
2012,06,09,16,04,17.20
2012,06,09,16,05,17.30
2012,06,09,16,06,17.40
2012,06,09,16,07,17.50
2012,06,09,16,08,17.40
2012,06,09,16,09,17.30
2012,06,09,16,10,17.30
2012,06,09,16,11,17.30
2012,06,09,16,12,17.20
2012,06,09,16,13,17.20
2012,06,09,16,14,17.20
2012,06,09,16,15,17.20
2012,06,09,16,16,17.10
2012,06,09,16,17,16.90
2012,06,09,16,18,16.70
2012,06,09,16,19,16.70
2012,06,09,16,20,16.70
2012,06,09,16,21,16.80
2012,06,09,16,22,16.90
2012,06,09,16,23,17.00
2012,06,09,16,24,17.10
2012,06,09,16,25,17.30
2012,06,09,16,26,17.30
2012,06,09,16,27,17.30
2012,06,09,16,28,17.30
2012,06,09,16,29,17.30
2012,06,09,16,30,17.30
2012,06,09,16,31,17.30
2012,06,09,16,32,17.30
2012,06,09,16,33,17.20
2012,06,09,16,34,17.00
2012,06,09,16,35,16.80
2012,06,09,16,36,16.80
2012,06,09,16,37,16.80
2012,06,09,16,38,16.80
2012,06,09,16,39,16.80
2012,06,09,16,40,16.80
2012,06,09,16,41,16.80
2012,06,09,16,42,16.80
2012,06,09,16,43,16.80
2012,06,09,16,44,16.70
2012,06,09,16,45,16.70
2012,06,09,16,46,16.60
2012,06,09,16,47,16.60
2012,06,09,16,48,16.50
2012,06,09,16,49,16.40
2012,06,09,16,50,16.40
2012,06,09,16,51,16.30
2012,06,09,16,52,16.40
2012,06,09,16,53,16.50
2012,06,09,16,54,16.60
2012,06,09,16,55,16.70
2012,06,09,16,56,16.70
2012,06,09,16,57,16.80
2012,06,09,16,58,16.90
2012,06,09,16,59,16.90
2012,06,09,17,00,16.90
2012,06,09,17,01,16.70
2012,06,09,17,02,16.60
2012,06,09,17,03,16.50
2012,06,09,17,04,16.40
2012,06,09,17,05,16.40
2012,06,09,17,06,16.40
2012,06,09,17,07,16.40
2012,06,09,17,08,16.40
2012,06,09,17,09,16.40
2012,06,09,17,10,16.30
2012,06,09,17,11,16.40
2012,06,09,17,12,16.40
2012,06,09,17,13,16.40
2012,06,09,17,14,16.40
2012,06,09,17,15,16.40
2012,06,09,17,16,16.30
2012,06,09,17,17,16.30
2012,06,09,17,18,16.40
2012,06,09,17,19,16.40
2012,06,09,17,20,16.40
2012,06,09,17,21,16.40
2012,06,09,17,22,16.40
2012,06,09,17,23,16.30
2012,06,09,17,24,16.20
2012,06,09,17,25,16.10
2012,06,09,17,26,16.10
2012,06,09,17,27,16.10
2012,06,09,17,28,16.10
2012,06,09,17,29,16.10
2012,06,09,17,30,16.10
2012,06,09,17,31,16.20
2012,06,09,17,32,16.20
2012,06,09,17,33,16.30
2012,06,09,17,34,16.30
2012,06,09,17,35,16.40